Regional Weather Roundup
Issued by NWS Jackson, KY

Home | Current Version | Previous Version | Graphics & Text | Print | Product List | Glossary On
Versions: 1 2 3 4 5 6 7 8 9 10 11 12 13 14 15 16 17 18 19 20 21 22 23 24 25 26 27 28 29 30 31 32 33 34 35 36 37 38 39 40 41 42 43 44 45 46 47 48 49 50
000
ASUS43 KJKL 060910
RWRJKL

EAST KENTUCKY HOURLY WEATHER ROUNDUP
NATIONAL WEATHER SERVICE JACKSON KY
400 AM EST FRI MAR 06 2015

NOTE: "FAIR" INDICATES FEW OR NO CLOUDS BELOW 12,000 FEET WITH
NO SIGNIFICANT WEATHER AND/OR OBSTRUCTIONS TO VISIBILITY.

* THESE REPORTS ARE NOT UNDER NWS QUALITY CONTROL AND MAY NOT
  REPORT WEATHER SUCH AS PRECIPITATION AND FOG.

KYZ079-080-083-085-087-088-110-112-115-119-120-061000
...EASTERN KENTUCKY...

CITY           SKY/WX    TMP DP  RH WIND       PRES   REMARKS
JACKSON        PTCLDY    10   5  80 NE3       30.46S
LONDON         PTCLDY     6  -2  69 CALM      30.48S
SOMERSET*      PTCLDY     5   1  85 CALM      30.52S
MONTICELLO*    FOG       -8 -12  83 CALM      30.53S VSB<1/4
MIDDLESBORO*   PTCLDY    15  10  82 CALM      30.48R
HAZARD APT*    SUNNY      7   5  92 CALM      30.48
BLACK MTN*       N/A      0   0 100 N2          N/A
PIKEVILLE APT* CLEAR     10   9  92 CALM      30.45S
BIG SANDY*     MOSUNNY   10   8  91 CALM      30.48R
MOREHEAD APT*  PTSUNNY    3   0  85 CALM      30.54F
$$

KYZ035-036-041-042-044-050-067-078-099-061000
...CENTRAL KENTUCKY...

CITY           SKY/WX    TMP DP  RH WIND       PRES   REMARKS
MT STERLING*   MOCLDY    -6  -9  84 CALM      30.53S
FLEMING/MASON* CLEAR      1   0  92 CALM      30.54S FOG
DANVILLE*      MOCLDY     0  -6  78 CALM      30.52S
RICHMOND*      CLOUDY     0  -4  85 CALM      30.51R VSB<1/4
LEXINGTON      PTCLDY     4   1  88 NE5       30.52S WCI  -5
FRANKFORT      PTCLDY    -5 -10  79 CALM      30.53S
$$

KYZ091>093-OHZ055-061-077-WVZ005-015-034-035-042-061000
...SOUTHERN OHIO/WEST VIRGINIA...

CITY           SKY/WX    TMP DP  RH WIND       PRES   REMARKS
COVINGTON      PTCLDY     3   0  87 CALM      30.52F
COLUMBUS       PTCLDY     5   1  83 CALM      30.52F
DAYTON           N/A     10   4  76 NW3       30.51F
WILMINGTON     MOCLDY    -1  -6  79 W3        30.52R
HUNTINGTON     FOG        5   4  95 N3        30.52R VSB 1/2
CHARLESTON     PTCLDY    10   7  87 E3        30.49F
PINEVILLE*     FLURRIES   7   6  95 MISG      30.46S
BECKLEY        LGT SNOW  10   6  84 N5        30.34S FOG     WCI   2
BLUEFIELD      CLOUDY    11   5  77 CALM      30.31S
$$

VAZ002-007-008-TNZ017-027-036-066-071-061000
...SOUTHWEST VIRGINIA/EAST TENNESSEE...

CITY           SKY/WX    TMP DP  RH WIND       PRES   REMARKS
WISE*          LGT SNOW  12   9  85 CALM      30.34S
JONESVILLE*    CLOUDY    10   9  92 CALM      30.47R
ABINGDON*      MOCLDY    16  12  82 CALM      30.37R
BRISTOL        CLOUDY    17  11  77 N7        30.43R WCI   8
KNOXVILLE      CLOUDY    20  14  77 N12       30.44F WCI   8
OAK RIDGE      PTCLDY    19   9  65 VRB3      30.47F
CROSSVILLE     PTCLDY    13   9  84 NE5       30.40F WCI   5
NASHVILLE      PTCLDY    12   7  80 NW3       30.55S
$$

...KEY TO REMARKS...
VSB - VISIBILITY IN MILES
WCI - WIND CHILL INDEX
HX  - HEAT INDEX

$$


USA.gov is the U.S. government's official web portal to all federal, state and local government web resources and services.